Location: Boston
(42.3580°N, 71.0600°W)
Time: 10:11:20
(UTC-05:00)

Tiangong 1 - Pass Details

Date: 10 October 2017
Orbit: 275 x 302 km, 42.8° (Epoch: 14 December)

Event Time Altitude Azimuth Distance (km) Brightness Sun altitude
Rises 19:07:12 0° 270° (W) 2,081 7.0 -11.4°
Reaches altitude 10° 19:09:14 10° 272° (W) 1,234 5.2 -11.8°
Maximum altitude 19:12:00 79° 360° (N) 326 0.6 -12.3°
Enters shadow 19:13:18 27° 83° (E) 649 1.6 -12.5°
